Location: Newark
(41.7563°N, 42.8282°E)
Time: 10:57:02
(UTC+00:00)

OTV 5 (USA 277) - Pass Details

Date: 27 October 2019
Orbit: 310 x 324 km, 54.5° (Epoch: 17 October)

Event Time Altitude Azimuth Distance (km) Brightness Sun altitude
Rises 15:18:32 0° 195° (SSW) 2,043 ? -13.3°
Reaches altitude 10° 15:20:52 10° 174° (S) 1,221 ? -13.7°
Enters shadow 15:22:12 16° 145° (SE) 940 ? -14.0°
